CDT,Max TemperatureF,Mean TemperatureF,Min TemperatureF,Max Dew PointF,MeanDew PointF,Min DewpointF,Max Humidity, Mean Humidity, Min Humidity, Max Sea Level PressureIn, Mean Sea Level PressureIn, Min Sea Level PressureIn, Max VisibilityMiles, Mean VisibilityMiles, Min VisibilityMiles, Max Wind SpeedMPH, Mean Wind SpeedMPH, Max Gust SpeedMPH,PrecipitationIn, CloudCover, Events, WindDirDegrees
2013-10-1,83,74,65,67,65,62,93,76,58,30.08,30.03,30.00,10,10,7,13,5,15,0.00,5,,202
2013-10-2,82,75,67,70,68,64,97,81,65,30.12,30.07,30.03,10,5,0,20,1,23,0.97,7,Fog-Rain-Thunderstorm,155
2013-10-3,85,77,69,69,66,63,97,73,48,30.08,30.02,29.97,10,8,4,16,4,21,0.01,4,Rain,179
2013-10-4,84,77,69,72,68,64,90,78,65,30.06,30.02,29.98,10,9,2,12,4,15,0.11,4,Rain,161
2013-10-5,78,73,67,72,68,65,93,86,79,30.04,29.98,29.84,10,6,1,31,5,40,1.75,7,Rain-Thunderstorm,186
2013-10-6,69,59,48,66,54,41,96,72,47,29.94,29.87,29.79,10,8,2,25,7,32,1.43,7,Rain-Thunderstorm,241
2013-10-7,65,57,48,49,45,42,93,73,52,30.18,30.04,29.91,10,10,10,15,5,20,0.00,1,,288
2013-10-8,72,59,46,49,46,43,93,66,38,30.25,30.19,30.15,10,10,9,16,4,22,0.00,0,,62
2013-10-9,78,63,48,58,52,45,93,71,49,30.21,30.16,30.12,10,10,9,6,2,8,0.00,1,,56
2013-10-10,80,67,54,59,56,54,100,71,42,30.18,30.12,30.05,10,7,1,8,2,12,0.00,1,,67
2013-10-11,79,66,53,57,55,52,93,69,45,30.10,30.05,30.00,10,7,1,9,2,14,0.00,1,,104
2013-10-12,79,66,53,63,58,52,93,74,54,30.14,30.07,30.03,10,8,5,12,4,16,0.00,2,,238
2013-10-13,76,64,52,63,49,41,93,62,31,30.32,30.26,30.15,10,10,7,14,7,17,0.00,1,,4
2013-10-14,72,60,48,53,48,42,86,67,47,30.32,30.24,30.12,10,10,10,10,5,13,0.00,0,,55
2013-10-15,72,65,57,65,61,52,93,85,76,30.11,30.00,29.94,10,8,2,17,6,23,0.16,5,Rain,202
2013-10-16,66,57,47,64,53,44,93,73,52,30.02,29.97,29.92,10,9,3,17,5,23,0.02,6,Rain,285
2013-10-17,61,53,45,49,46,42,93,74,55,30.01,29.99,29.96,10,8,0,15,3,18,0.19,4,Fog-Rain,278
2013-10-18,68,56,44,49,45,42,100,71,42,30.06,30.01,29.96,10,7,1,14,4,20,0.00,2,,241
2013-10-19,57,50,42,47,42,34,93,68,43,30.05,29.98,29.91,10,9,4,20,6,25,0.19,5,Rain,302
2013-10-20,65,53,41,43,40,38,83,62,40,30.07,30.03,29.99,10,10,10,18,7,25,0.00,0,,194
2013-10-21,67,56,44,48,44,37,83,68,52,30.06,30.00,29.95,10,10,10,16,7,21,0.01,4,Rain,245
2013-10-22,57,46,35,45,36,31,100,70,40,30.09,29.98,29.85,10,10,5,23,5,29,T,3,,214
2013-10-23,51,46,40,39,33,28,83,63,42,30.14,30.05,29.87,10,10,10,22,8,31,0.00,7,,293
2013-10-24,47,40,33,35,30,22,76,57,37,30.40,30.24,30.13,10,10,10,22,7,28,T,7,,297
2013-10-25,52,40,28,30,25,23,82,59,36,30.54,30.44,30.31,10,10,7,9,3,14,0.00,0,,279
2013-10-26,60,45,30,40,33,26,85,64,42,30.29,30.15,30.02,10,10,10,23,10,29,0.00,2,,231
2013-10-27,62,48,33,36,33,31,92,62,32,30.15,30.10,30.06,10,10,8,9,1,10,0.00,0,,296
2013-10-28,69,52,35,40,36,33,92,60,27,30.28,30.20,30.11,10,10,10,8,2,10,0.00,1,,56
2013-10-29,59,50,41,56,50,36,100,85,70,30.32,30.23,30.12,10,4,0,10,3,13,0.20,7,Fog-Rain,99
2013-10-30,75,67,58,64,61,56,97,81,64,30.13,30.07,29.98,10,7,2,17,7,22,0.07,7,Rain,202
2013-10-31,70,62,54,65,59,53,93,81,68,29.94,29.64,29.43,10,8,1,28,13,38,0.96,7,Rain,200